• Join FlightAware (Why Join?)
  • Login
  • US Flag 
01:20PM EDT


 

Airport Tracker/Info


-or-


 

Live Flight TrackerFlight Track Log ✈ N868DB ✈ 05-May-2014 ✈ KHOU - KFTW

Flight Track Log - Related Links

Times and Time Zones

All times are in EDT time to prevent confusion due to time zone crossing. See the N868DB flight status page for this flight to view local times or setup timezone preferences in your user account.

Time Position Orientation Groundspeed Altitude Reporting Facility
EDT Latitude Longitude Course Direction KTS MPH feet Rate Location/Type
07:50PM 29.6353 -95.2892 178° South 148 170 1,300  Level Houston Center
07:51PM 29.6144 -95.2883 178° South 210 242 4,000 3,900 Climbing Houston Center
07:52PM 29.6575 -95.2242 52° Northeast 244 281 9,000 2,820 Climbing Houston Center
07:53PM 29.7331 -95.1836 25° Northeast 319 367 9,800 1,560 Climbing Houston Center
07:54PM 29.8108 -95.2250 335° Northwest 307 353 12,300 2,520 Climbing Houston Center
07:55PM 29.8919 -95.2669 336° Northwest 315 362 15,100 1,740 Climbing Houston Center
07:56PM 29.9825 -95.3058 340° North 343 395 15,900 1,320 Climbing Houston Center
07:57PM 30.0842 -95.3367 345° North 369 425 17,900 2,220 Climbing Houston Center
07:58PM 30.2069 -95.3747 345° North 377 434 20,500 2,040 Climbing Houston Center
07:59PM 30.3136 -95.4081 345° North 392 451 22,200 1,740 Climbing Houston Center
08:00PM 30.4228 -95.4433 344° North 406 467 24,200 1,680 Climbing Houston Center
08:01PM 30.5333 -95.4769 345° North 406 467 25,700 1,320 Climbing Houston Center
08:02PM 30.6489 -95.5008 350° North 416 479 27,000 1,260 Climbing Houston Center
08:03PM 30.7714 -95.5297 349° North 426 490 28,400 1,260 Climbing Houston Center
08:04PM 30.8908 -95.5564 349° North 430 495 29,700 1,080 Climbing Houston Center
08:05PM 31.0125 -95.5847 349° North 436 502 30,700 960 Climbing Houston Center
08:06PM 31.1369 -95.6125 349° North 446 513 31,700 600 Climbing Houston Center
08:07PM 31.2892 -95.6486 349° North 458 527 32,000  Climbing Houston Center
08:08PM 31.3803 -95.6786 344° North 459 528 31,700 -720 Descending Fort Worth Center
08:09PM 31.5142 -95.7661 331° Northwest 460 529 30,600 -1,020 Descending Fort Worth Center
08:10PM 31.6106 -95.8528 323° Northwest 451 519 29,600 -1,500 Descending Fort Worth Center
08:11PM 31.6964 -95.9461 317° Northwest 428 493 27,500 -2,340 Descending Fort Worth Center
08:12PM 31.7803 -96.0369 317° Northwest 417 480 24,800 -2,640 Descending Fort Worth Center
08:13PM 31.8672 -96.1300 318° Northwest 420 483 22,100 -2,520 Descending Fort Worth Center
08:14PM 31.9467 -96.2169 317° Northwest 404 465 19,600 -2,400 Descending Fort Worth Center
08:15PM 32.0258 -96.3019 318° Northwest 371 427 17,200 -2,520 Descending Fort Worth Center
08:16PM 32.1106 -96.3947 317° Northwest 348 400 14,500 -2,460 Descending Fort Worth Center
08:17PM 32.1836 -96.4731 318° Northwest 352 405 12,200 -2,280 Descending Fort Worth Center
08:18PM 32.2547 -96.5508 317° Northwest 329 379 9,900 -1,560 Descending Fort Worth Center
08:19PM 32.3161 -96.6133 319° Northwest 294 338 9,000 -660 Descending Fort Worth Center
08:20PM 32.3669 -96.6908 308° West 292 336 8,600 -840 Descending Fort Worth Center
08:21PM 32.3853 -96.7786 284° West 283 326 7,300 -1,260 Descending Fort Worth Center
08:23PM 32.4006 -96.8653 282° West 276 318 6,000 -900 Descending Fort Worth Center
08:24PM 32.4350 -96.9522 295° West 285 328 5,500 -720 Descending Fort Worth Center
08:25PM 32.5022 -97.0083 325° Northwest 288 331 4,600 -780 Descending Fort Worth Center
08:26PM 32.5689 -97.0622 326° Northwest 291 335 4,000 -300 Descending Fort Worth Center
08:27PM 32.6428 -97.1189 327° Northwest 292 336 4,000  Level Fort Worth Center
08:28PM 32.7092 -97.1708 327° Northwest 289 333 4,000 -300 Level Fort Worth Center
08:29PM 32.7761 -97.2136 332° Northwest 276 318 3,500 -540 Descending Fort Worth Center
08:30PM 32.8472 -97.2442 340° North 256 295 2,900 -600 Descending Fort Worth Center
08:31PM 32.8825 -97.3031 306° West 236 272 2,300 -600 Descending Fort Worth Center
08:32PM 32.8731 -97.3650 260° West 173 199 1,700 -600 Descending Fort Worth Center
08:33PM 32.8469 -97.3664 183° South 93 107 1,100 -540 Descending Fort Worth Center
08:34PM 32.8214 -97.3628 173° South 92 106 700 -420 Descending Fort Worth Center